Regional Weather Roundup
Issued by NWS Charleston, SC

Current Version | Previous Version | Graphics & Text | Print | Product List | Glossary On
Versions: 1 2 3 4 5 6 7 8 9 10 11 12 13 14 15 16 17 18 19 20 21 22 23 24 25 26 27 28 29 30 31 32 33 34 35 36 37 38 39 40 41 42 43 44 45 46 47 48 49 50
000 ASUS42 KCHS 180227 RWRCHS REGIONAL WEATHER ROUNDUP NATIONAL WEATHER SERVICE CHARLESTON SC 1000 PM EDT TUE OCT 17 2017 NOTE: "FAIR" INDICATES FEW OR NO CLOUDS BELOW 12,000 FEET WITH NO SIGNIFICANT WEATHER AND/OR OBSTRUCTIONS TO VISIBILITY. NOT ALL STATIONS ARE QUALITY CONTROLLED. USE DATA WITH CAUTION... ESPECIALLY DEWPOINT OBSERVATIONS. SCZ027-030-031-034>040-042>050-180300- ...SOUTHEAST SOUTH CAROLINA... CITY SKY/WX TMP DP RH WIND PRES REMARKS N CHARLESTON CLEAR 53 48 83 NE6 30.28R WATERFRONT PRK N/A 64 53 67 NE10 30.11S JOHNS ISLAND FAIR 61 48 63 N8 30.27R PINOPOLIS N/A 63 50 63 NE12 30.18S MONCKS CORNER FAIR 54 45 71 NE3 30.29R SUMMERVILLE FAIR 50 48 93 CALM 30.30R BEAUFORT MCAS CLEAR 60 50 69 MISG 30.27R BEAUFORT ARPT FAIR 63 46 55 NE16 30.26S HILTON HEAD IS CLEAR 63 43 48 NE13G18 30.26S WALTERBORO CLEAR 50 45 81 NE3 30.29R ALLENDALE NOT AVBL ...SOUTHERN MIDLANDS AND PEE DEE... CITY SKY/WX TMP DP RH WIND PRES REMARKS GEORGETOWN FAIR 52 46 82 N5 30.29R KINGSTREE FAIR 46 45 93 CALM 30.30S ORANGEBURG CLEAR 54 41 61 NE5 30.29R BARNWELL N/A 54 43 66 CALM 30.29R AIKEN FAIR 46 43 87 CALM 30.33R MANNING FOG 46 45 93 MISG 30.30R VSB<1/4 COLUMBIA CLEAR 51 47 86 CALM 30.30R SUMTER CLEAR 50 42 74 NE5 30.28R FLORENCE CLEAR 53 42 66 NE6 30.31R MYRTLE BEACH CLEAR 54 47 77 N8 30.30R N MYRTLE BEACH CLEAR 52 47 83 NE6 30.29R $$ GAZ063-065-086>088-099>101-113>116-118-119-134>141-150-180300- ...SOUTHEAST GEORGIA... CITY SKY/WX TMP DP RH WIND PRES REMARKS SAVANNAH ARPT CLEAR 58 46 64 NE9 30.26R HUNTER AAF CLEAR 61 45 57 NE6 30.23R FORT STEWART CLEAR 54 46 74 NE6 30.23S STATESBORO CLEAR 51 43 75 CALM 30.27R SYLVANIA CLEAR 53 45 73 E5 30.29R CLAXTON FAIR 50 49 96 CALM 30.27R ...CSRA...CENTRAL AND FAR SOUTHEAST GEORGIA... CITY SKY/WX TMP DP RH WIND PRES REMARKS THOMSON CLEAR 48 45 91 CALM 30.34R AUGUSTA-BUSH CLEAR 49 45 86 CALM 30.28R AUGUSTA-DANIEL CLEAR 61 40 45 NE6 30.29R SWAINSBORO FAIR 54 45 71 MISG 30.29R VIDALIA CLEAR 55 46 71 NE5 30.27R EASTMAN FAIR 52 39 60 NE3 30.29R HAZLEHURST FAIR 57 36 44 CALM 30.25R ALMA CLEAR 59 42 53 VRB5 30.24R WAYCROSS CLEAR 53 47 82 CALM 30.24R JESUP NOT AVBL BAXLEY FAIR 54 41 62 NE5 30.25R BRUNSWICK CLEAR 64 50 59 NE10G16 30.23R SAINT SIMONS CLOUDY 68 57 68 NE15G24 30.21R $$ SCZ027-028-034-036>038-045-046-048>050-GAZ119-141-180300- ...LAKE AND SUPPLEMENTAL COASTAL OBSERVATIONS... STATION/POSITION TIME TEMP WIND PRES WAVE SWELL AIR SEA DIR/SP/G HT/PER HT/PER/DIR (UTC) (F) (DEG/KT/KT) (MB) (FT/S) (FT/S/D) WINYAH BAY 0130 58 360/ 7 1025.0S LAKE MURRAY 0120 58 350/ 2/ 3 1025.1 ACE BASIN NERRS 0145 58 CALM 1025.0S FORT PULASKI 0200 65 76 40/ 16/ 19 1024.5 SAPELO ISLAND 0200 66 40/ 11 1023.0 $$ ANZ835-935-AMZ111-154-330-350-352-354-370-450-454-472-180300- ...C-MAN AND BUOY OBSERVATIONS... STATION/POSITION TIME TEMP WIND PRES WAVE SWELL AIR SEA DIR/SP/G HT/PER HT/PER/DIR (UTC) (F) (DEG/KT/KT) (MB) (FT/S) (FT/S/D) BUOY 41004 0210 69 80 30/ 21/ 29 1022.9 BUOY 41008 0150 70 78 60/ 21/ 25 1022.1R 7/ 7 3/100/10 FOLLY BEACH CMAN 0200 63 20/ 14/ 17 1025.3R CAPERS NEARSHORE 0208 63 76 40/ 16/ 25 1024.3R FRIPP NEARSHORE 0208 67 40/ 17/ 27 N/A STATION/POSITION TIME TEMP WIND PRES WAVE SWELL AIR SEA DIR/SP/G HT/PER HT/PER/DIR (UTC) (F) (DEG/KT/KT) (MB) (FT/S) (FT/S/D) 5E ST. MARYS GA 0200 79 N/A 8/ 7 2/100/11 FRYING PAN BUOY 0210 66 77 50/ 17/ 23 1024.1 BUOY 41025 0150 65 81 20/ 17/ 23 1023.9R 6/ 9 3/ 50/ 9 CAPE LOOKOUT NC 0200 60 10/ 12/ 16 1025.2R BUOY 41002 0150 75 79 40/ 21/ 29 1019.3R 12/ 9 BUOY 41010 NOT AVBL ST AUGUSTINE FL 0200 74 79 20/ 25/ 29 1020.6R $$

USA.gov is the U.S. government's official web portal to all federal, state and local government web resources and services.